Weather Roundup
Issued by NWS

Home | Current Version | Previous Version | Graphics & Text | Print | Product List | Glossary Off
Versions: 1 2 3 4 5 6 7 8 9 10 11 12 13 14 15 16 17 18 19 20 21 22 23 24 25 26 27 28 29 30 31 32 33 34 35 36 37 38 39 40 41 42 43 44 45 46 47 48 49 50

000
NZUS93 KARX 230310
HRRWXR

CURRENT HOURLY OBSERVATIONS ACROSS
MUCH OF THE UPPER MISSISSIPPI VALLEY
NATIONAL WEATHER SERVICE LA CROSSE WI
1000 PM CDT FRI MAY 22 2015


...SOUTHEAST MINNESOTA...


CITY           SKY/WX    TMP DP  RH WIND       PRES   REMARKS
ROCHESTER      CLOUDY    61  38  42 E7        30.22R
ROCHESTER/MAYO FAIR      64  37  37 E6        30.21R
WINONA         MOCLDY    55  46  71 CALM      30.22R
AUSTIN         CLOUDY    61  43  51 E6        30.20R
ALBERT LEA     CLOUDY    61  45  55 CALM      30.20R
DODGE CENTER   CLOUDY    61  39  44 E6        30.21R
PRESTON        CLOUDY    61  35  37 E6        30.22R
OWATONNA       CLOUDY    63  36  36 E6        30.20R
FARIBAULT      CLOUDY    61  41  48 CALM      30.20R
$$

...ELSEWHERE IN MINNESOTA...


CITY           SKY/WX    TMP DP  RH WIND       PRES   REMARKS
MINNEAPOLIS    MOCLDY    67  37  33 NE3       30.19R
INTNL FALLS    PTCLDY    53  43  68 W3        30.11R
DULUTH         CLEAR     59  36  42 SW5       30.18R
RED WING       MOCLDY    55  45  67 CALM      30.20R
REDWOOD FALLS  CLOUDY    66  36  32 SE7       30.16R
MANKATO        CLOUDY    64  36  34 E9        30.19R
WORTHINGTON    CLOUDY    59  39  47 SW14      30.21R
FAIRMONT       CLOUDY    63  34  34 S6        30.18R
$$

...SOUTHWEST WISCONSIN...


CITY           SKY/WX    TMP DP  RH WIND       PRES   REMARKS
LA CROSSE      MOCLDY    62  43  49 CALM      30.21R
PRAIRIE DU CHI CLOUDY    60  47  61 CALM      30.21S
BOSCOBEL       CLOUDY    55  45  68 CALM      30.22R
LONE ROCK      CLOUDY    57  47  69 NE3       30.22R
PLATTEVILLE    CLOUDY    65  38  37 SE5       30.23R
FORT MC COY    MOCLDY    51  42  71 CALM      30.23R
CAMP DOUGLAS   MOCLDY    50  49  93 CALM      30.22R
VIROQUA        FAIR      61  34  37 E5        30.23R
WIS DELLS      MOCLDY    52  40  63 CALM      30.23R
$$

...ELSEWHERE IN WISCONSIN...


CITY           SKY/WX    TMP DP  RH WIND       PRES   REMARKS
MILWAUKEE      MOCLDY    48  29  47 SE6       30.29S
MADISON        CLOUDY    60  37  42 SE12      30.25R
GREEN BAY      CLEAR     53  29  39 S8        30.26R
EAU CLAIRE     MOCLDY    54  39  57 CALM      30.21R
BLACK RVR FLS  FAIR      49  42  76 CALM      30.22R
MEDFORD        FAIR      49  38  65 CALM      30.24R
WAUSAU         CLEAR     57  41  55 CALM      30.22R
WIS RAPIDS     LGT RAIN  54  35  48 CALM      30.24R
MARSHFIELD     PTCLDY    57  37  47 CALM      30.24R
RICE LAKE      FAIR      57  44  61 CALM      30.23R
$$

...NORTHEAST IOWA...


CITY           SKY/WX    TMP DP  RH WIND       PRES   REMARKS
DECORAH        CLOUDY    63  39  42 SE5       30.21R
MASON CITY     CLOUDY    63  40  42 S6        30.21R
CHARLES CITY   CLOUDY    64  37  36 S7        30.21R
OELWEIN        CLOUDY    64  43  45 S6        30.22R
$$

...ELSEWHERE IN IOWA...


CITY           SKY/WX    TMP DP  RH WIND       PRES   REMARKS
DES MOINES     CLOUDY    64  47  53 S3        30.22R
IOWA CITY      CLOUDY    64  49  57 CALM      30.23R
FORT DODGE     CLOUDY    59  45  58 SW3       30.22R
$$

...NORTHERN ILLINOIS...


CITY           SKY/WX    TMP DP  RH WIND       PRES   REMARKS
CHICAGO-OHARE  CLOUDY    53  29  39 E7        30.28R
CHICAGO-MIDWAY CLOUDY    56  35  45 E9        30.29R
MOLINE         CLOUDY    60  48  64 SW5       30.22R
ROCKFORD       CLOUDY    58  34  40 E5        30.29R
PEORIA         CLOUDY    70  42  36 SW5       30.24R
$$

NOTE: "FAIR" INDICATES FEW OR NO CLOUDS BELOW 12,000 FEET WITH NO
SIGNIFICANT WEATHER AND/OR OBSTRUCTIONS TO VISIBILITY. WIND
SPEEDS ARE IN MILES-PER-HOUR.



USA.gov is the U.S. government's official web portal to all federal, state and local government web resources and services.